Regional Weather Roundup
Issued by NWS

Home | Current Version | Previous Version | Graphics & Text | Print | Product List | Glossary On
Versions: 1 2 3 4 5 6 7 8 9 10 11 12 13 14 15 16 17 18 19 20 21 22 23 24 25 26 27 28 29 30 31 32 33 34 35 36 37 38 39 40 41 42 43 44 45 46 47 48 49 50
147
ASUS43 KDTX 272201
RWRMI
MICHIGAN HOURLY REGIONAL WEATHER ROUNDUP
NATIONAL WEATHER SERVICE DETROIT/PONTIAC MI
600 PM EDT TUE JUN 27 2017

NOTE: "FAIR" INDICATES FEW OR NO CLOUDS BELOW 12,000 FEET WITH NO
SIGNIFICANT WEATHER AND/OR OBSTRUCTION TO VISIBILITY.

MIZ047>049-052>055-059>063-066>070-074>076-081>083-272300-
SOUTHEAST LOWER MICHIGAN

CITY           SKY/WX    TMP DP  RH WIND       PRES   REMARKS
ADRIAN         MOSUNNY   74  43  32 NW10G20   30.05F
ALMA           MOSUNNY   69  46  42 W8        30.02F
ANN ARBOR      CLOUDY    72  48  42 VRB7      30.03F
BAD AXE        MOSUNNY   67  46  46 W10G18    30.01S
CARO           MOSUNNY   70  51  50 SW7       30.01S
DETROIT CITY   CLOUDY    71  44  37 W9        30.02F
DETROIT        PTSUNNY   74  45  35 W14       30.03F
FLINT          PTSUNNY   70  46  42 W16       30.02S
GROSSE ILE     PTSUNNY   71  45  39 W9        30.02F
HILLSDALE      MOSUNNY   72  43  35 W13G18    30.06S
HOWELL         PTSUNNY   71  41  33 NW10G17   30.03F

CITY           SKY/WX    TMP DP  RH WIND       PRES   REMARKS
JACKSON        SUNNY     72  46  39 NW14G20   30.04F
LAMBERTVILLE   PTSUNNY   71  46  40 W8        30.04S
LANSING        PTSUNNY   73  44  35 W14G23    30.04F
LAPEER         CLOUDY    69  47  44 CALM      30.03S
MASON          SUNNY     72  46  39 W10G20    30.04S
MONROE         CLOUDY    70  46  42 W7        30.03F
MT. CLEMENS    PTSUNNY   70  46  41 NW7       30.00S
PONTIAC        PTSUNNY   71  45  39 W15G22    30.02S
PORT HOPE        N/A     68  49  50 W9        29.98F
PORT HURON     LGT RAIN  63  50  63 NW6       30.03R
TRI CITIES     CLOUDY    70  51  51 W15       30.01S
MIDLAND        PTSUNNY   73  47  39 W12       29.99F
TROY           MOSUNNY   73  40  30 W8        30.04S
SAGINAW HB     CLOUDY    68  46  45 W10       30.01S
$$
MIZ043>046-050>051-056>058-064>065-071>073-077>080-272300-
SOUTHWEST LOWER MICHIGAN

CITY           SKY/WX    TMP DP  RH WIND       PRES   REMARKS
BATTLE CREEK   MOSUNNY   73  44  35 W12G21    30.07F
BENTON HARBOR  SUNNY     70  42  36 MISG      30.08F
BIG RAPIDS     MOSUNNY   69  43  38 W13G18    30.02F
COLDWATER      MOSUNNY   71  40  33 NW8G17    30.06F
FREMONT        FAIR      71  44  37 W8        30.03F
HOLLAND        SUNNY     71  47  42 W9        30.07F
GRAND RAPIDS   MOSUNNY   71  47  42 W14       30.05F
IONIA          FAIR      71  45  39 W12       30.03F
KALAMAZOO      MOSUNNY   72  42  34 NW13G20   30.07S
LUDINGTON      CLOUDY    67  53  60 SW8       30.02F
MARSHALL       MOSUNNY   73  42  33 W14G20    30.05F
MOUNT PLEASANT MOSUNNY   69  46  44 W3        30.00S
MUSKEGON       MOSUNNY   69  49  48 SW12      30.05F
SOUTH HAVEN    SUNNY     71  45  39 NW6       30.07F
$$
MIZ016>042-272300-
NORTHERN LOWER MICHIGAN

CITY           SKY/WX    TMP DP  RH WIND       PRES   REMARKS
ALPENA         MOSUNNY   70  45  40 NW12      29.97S
BELLAIRE       MOSUNNY   67  45  43 NW6       30.00S
CADILLAC       SUNNY     69  44  41 W14       30.02S
CHARLEVOIX     SUNNY     66  53  63 W10       30.02F
FRANKFORT      SUNNY     66  48  52 SW6       30.01F
GAYLORD        MOSUNNY   66  44  45 W7        30.00S
GRAYLING       SUNNY     68  45  43 NW13      30.01S
HARBOR SPRINGS SUNNY     62  54  73 W5        30.00S
HOUGHTON LAKE  MOSUNNY   70  43  37 W12       30.00F
MANISTEE       SUNNY     70  49  47 W8        30.01F
OSCODA         PTSUNNY   66  50  55 S5        29.98S
PELLSTON       SUNNY     68  46  45 W9        29.99S
ROGERS CITY    SUNNY     67  45  46 N8        29.98S
TRAVERSE CITY  PTSUNNY   71  44  37 W12       29.99F
$$
MIZ007>008-015-272300-
EASTERN UPPER MICHIGAN

CITY           SKY/WX    TMP DP  RH WIND       PRES   REMARKS
KINROSS        MOSUNNY   67  48  50 W3        29.96S
MACKINAC ISLAN SUNNY     63  53  71 SW8G20    29.97F
NEWBERRY       SUNNY     68  46  44 W6        29.94F
S. S. MARIE    SUNNY     69  45  41 NW8       29.94F
MUNISING         N/A     69  53  56 N5        29.93F
$$
MIZ004>006-011>014-085-272300-
CENTRAL UPPER MICHIGAN

CITY           SKY/WX    TMP DP  RH WIND       PRES   REMARKS
MANISTIQUE     SUNNY     62  56  78 S12       29.97F
ESCANABA       SUNNY     69  56  62 S10       29.96F
MENOMINEE      SUNNY     74  53  48 SW7       29.96F
SAWYER-GWINN   SUNNY     72  45  37 S7        29.94F
$$
MIZ001>003-009>011-084-272300-
WESTERN UPPER MICHIGAN

CITY           SKY/WX    TMP DP  RH WIND       PRES   REMARKS
IRON MOUNTAIN  MOSUNNY   74  45  35 S10       29.94F
HOUGHTON       SUNNY     72  43  35 W14       29.91S
COPPER HARBOR    N/A     72  45  37 VRB6      29.89F
IRONWOOD       SUNNY     73  46  38 SW15      29.92F
$$

ABBREVIATIONS USED IN REMARKS
   TC - TEMPERATURE IN CELSIUS
  WCI - WIND CHILL INDEX
   HX - HEAT INDEX
  VSB - VISIBILITY





USA.gov is the U.S. government's official web portal to all federal, state and local government web resources and services.